TORREJON_(USAFB) current weather conditions

sailwx.info

Air temperature 2.0° C
Visibility: greater than 5.4 NM
Dewpoint -1.0° C

Last reported at 2017-Dec-18 10:00 UTC.
Time now 2017-Dec-18 11:19 UTC

Location: N 40°28' W 003°28'.
View on Google Maps.

See reports from other nearby stations

  
Tides and Currents Weather Stations Pressure Air Temp Water Temp Dewpoint Dewpoint Depression Visibility Wind Speed Wind Dir Waves Ship Positions
date/time (UTC)wind fromknots sea level pressurealtimeterstation pressurevisibilityair tempwater tempwave heightnotes
2017-Dec-18 10:00 5.4 2.0
2017-Dec-18 09:00 030 1 5.4-1.0
2017-Dec-18 08:00 030 2 5.4-2.0
2017-Dec-18 07:00 040 1 5.4-2.0
2017-Dec-18 06:00 330 0 5.4-2.0
2017-Dec-18 05:00 5.4-1.0
2017-Dec-18 04:00 030 2 5.4-1.0
2017-Dec-18 03:00 030 1 5.4-0.0
2017-Dec-18 02:00 030 6 5.4-0.0
2017-Dec-18 01:00 030 5 5.4-0.0
2017-Dec-18 00:00 5.4-0.0
2017-Dec-17 23:00 030 5 5.4 1.0
2017-Dec-17 22:00 020 6 5.4-0.0
2017-Dec-17 21:00 360 2 5.4 1.0
2017-Dec-17 20:00 040 5 5.4 2.0
2017-Dec-17 19:00 360 9 5.4 4.0
2017-Dec-17 18:00 360 9 5.4 6.0
2017-Dec-17 17:00 350 5 5.4 6.0
2017-Dec-17 16:00 040 9 5.410.0
2017-Dec-17 15:00 040 13 5.410.0
2017-Dec-17 14:00 020 13 5.410.0
2017-Dec-17 13:41 030 9 5.410.0
2017-Dec-17 13:00 5.4 9.0
2017-Dec-17 12:00 090 4 5.4 7.0
2017-Dec-17 11:00 100 4 5.4 5.0
2017-Dec-17 10:00 060 2 5.4 2.0
2017-Dec-17 09:00 090 0 5.4-0.0
2017-Dec-17 08:00 5.4-2.0
2017-Dec-17 07:00 050 5 5.4-2.0
2017-Dec-17 06:00 050 2 5.4-2.0
2017-Dec-17 05:00 050 4 5.4-1.0
2017-Dec-17 04:00 030 4 5.4-1.0
2017-Dec-17 03:00 040 2 5.4-1.0
2017-Dec-17 02:00 030 6 5.4-0.0
2017-Dec-17 01:00 030 6 5.4-0.0
2017-Dec-17 00:00 040 4 5.4 1.0
2017-Dec-16 23:00 040 5 5.4 2.0
2017-Dec-16 22:00 010 6 5.4 2.0
2017-Dec-16 21:00 010 1 5.4 3.0
2017-Dec-16 20:00 350 13 5.4 5.0
2017-Dec-16 19:00 360 11 5.4 5.0
2017-Dec-16 18:00 350 12 5.4 6.0
2017-Dec-16 17:00 350 13 5.4 7.0
2017-Dec-16 16:00 360 13 5.4 8.0
2017-Dec-16 15:00 010 11 5.4 9.0
2017-Dec-16 14:00 340 14 5.410.0
2017-Dec-16 13:00 350 12 5.410.0
2017-Dec-16 12:00 010 6 5.4 9.0
2017-Dec-16 11:00 350 7 5.4 8.0